Date,TemperatureHighF,TemperatureAvgF,TemperatureLowF,DewpointHighF,DewpointAvgF,DewpointLowF,HumidityHigh,HumidityAvg,HumidityLow,PressureMaxIn,PressureMinIn,WindSpeedMaxMPH,WindSpeedAvgMPH,GustSpeedMaxMPH,PrecipitationSumIn
2013-2-1,44.9,28.9,15.9,22.7,14.8,6.3,75,57,36,30.47,30.16,20,5,20,0.00
2013-2-2,58.2,41.2,25.5,34.0,28.0,19.8,82,61,37,30.29,30.17,17,3,17,0.00
2013-2-3,58.0,47.0,36.1,31.6,28.8,26.0,75,51,31,30.31,29.92,16,4,16,0.00
2013-2-4,68.0,55.4,41.4,42.5,35.5,31.1,70,48,29,29.92,29.78,21,6,21,0.00
2013-2-5,70.1,48.9,32.2,43.7,35.1,28.6,89,63,28,30.03,29.88,10,1,10,0.00
2013-2-6,63.9,51.6,36.8,53.0,43.4,32.4,90,74,54,30.03,29.86,26,8,26,0.00
2013-2-7,61.8,52.5,42.2,56.3,48.5,36.7,91,86,79,30.12,29.80,24,7,24,0.10
2013-2-8,49.4,40.0,33.9,36.7,32.8,30.4,89,76,56,30.32,30.11,20,5,20,0.00
2013-2-9,46.1,40.8,36.0,44.4,36.3,31.0,94,84,77,30.16,29.73,23,10,23,0.23
2013-2-10,61.3,52.5,41.9,51.0,37.6,26.9,94,61,32,30.04,29.61,27,11,27,0.16
2013-2-11,52.3,41.6,32.0,28.4,25.9,24.1,73,55,35,30.22,30.03,21,4,21,0.00
2013-2-12,39.9,36.5,32.1,36.7,31.1,25.0,93,81,63,30.11,29.94,16,5,16,0.32
2013-2-13,55.2,41.3,34.3,38.1,33.2,28.9,93,75,45,30.07,29.95,11,6,17,0.01
2013-2-14,59.5,45.4,32.0,36.6,31.5,25.6,79,60,41,30.21,29.97,25,5,25,0.00
2013-2-15,43.2,36.5,27.9,35.0,21.3,14.4,78,56,31,30.39,30.20,20,6,22,0.00
2013-2-16,45.9,35.7,24.3,27.8,19.8,14.7,77,54,33,30.40,30.07,24,5,24,0.00
2013-2-17,68.6,52.5,36.0,37.2,31.8,23.3,71,48,27,30.08,29.73,35,12,35,0.00
2013-2-18,61.2,53.6,38.3,51.5,39.0,25.5,76,58,42,30.14,29.60,40,16,40,0.00
2013-2-19,50.9,38.6,25.8,27.4,24.2,20.0,82,58,36,30.34,30.13,14,2,15,0.00
2013-2-20,39.4,34.3,31.2,31.2,28.6,23.4,93,81,53,30.26,29.98,15,7,17,0.44
2013-2-21,36.2,32.4,26.6,34.5,29.9,20.3,94,91,76,29.99,29.68,25,4,25,0.28
2013-2-22,39.5,28.8,20.4,22.9,19.6,16.0,84,69,49,30.17,29.97,22,5,22,0.00
2013-2-23,46.4,32.1,19.3,25.3,21.1,15.5,92,66,42,30.14,29.95,12,1,12,0.00
2013-2-24,61.2,44.9,27.6,39.3,32.3,21.5,80,63,40,29.97,29.73,28,8,28,0.00
2013-2-25,47.1,39.1,32.3,37.0,34.6,30.2,93,84,62,29.79,29.44,29,11,30,1.29
2013-2-26,43.9,37.1,31.7,34.7,31.8,26.8,93,81,67,29.92,29.48,30,11,30,0.13
2013-2-27,46.9,36.2,29.5,32.6,27.9,25.4,92,73,48,30.17,29.91,30,9,30,0.00
2013-2-28,48.1,37.2,29.2,31.1,28.0,25.0,85,70,49,30.23,30.16,17,7,19,0.00